Location: Newark
(39.5667°N, 8.9833°E)
Time: 05:45:23
(UTC+00:00)

Courier 1B Rocket - Visible Passes

Search period start: 20 October 2019 00:00
Search period end: 30 October 2019 00:00
Orbit: 920 x 1202 km, 28.2° (Epoch: 19 October)

Date Brightness Start Highest point End Pass type
(mag) Time Alt. Az. Time Alt. Az. Time Alt. Az.
20 Oct 6.2 03:16:44 25° S 03:17:19 25° S 03:22:21 10° ESE visible
20 Oct 6.3 05:04:39 10° WSW 05:09:57 29° S 05:15:26 10° SE visible
21 Oct 7.1 02:19:35 15° SE 02:19:35 15° SE 02:21:10 10° ESE visible
21 Oct 6.1 04:05:58 19° SW 04:09:10 29° S 04:14:34 10° ESE visible
22 Oct 6.2 03:08:48 28° SSE 03:08:48 28° SSE 03:13:37 10° ESE visible
22 Oct 6.3 04:55:57 10° WSW 05:01:03 27° S 05:06:17 10° SE visible
23 Oct 7.2 02:11:38 14° ESE 02:11:38 14° ESE 02:12:39 10° ESE visible
23 Oct 6.1 03:58:01 23° SW 04:00:17 28° S 04:05:35 10° SE visible
24 Oct 6.3 03:00:51 27° SSE 03:00:51 27° SSE 03:04:48 10° ESE visible
24 Oct 6.4 04:47:23 10° WSW 04:52:08 23° SSW 04:56:56 10° SE visible
25 Oct 7.4 02:03:41 11° ESE 02:03:41 11° ESE 02:03:59 10° ESE visible
25 Oct 6.1 03:50:03 24° SSW 03:51:24 26° S 03:56:28 10° SE visible
26 Oct 6.5 02:52:54 23° SSE 02:52:54 23° SSE 02:55:52 10° SE visible
26 Oct 6.6 04:39:17 11° WSW 04:43:11 18° SSW 04:47:20 10° SSE visible
27 Oct 6.3 03:42:09 22° SSW 03:42:29 22° SSW 03:47:10 10° SE visible
28 Oct 6.9 02:45:02 17° SSE 02:45:02 17° SSE 02:46:48 10° SE visible
28 Oct 6.8 04:31:25 10° SW 04:34:11 14° SSW 04:37:10 10° S visible
29 Oct 6.6 03:34:19 18° S 03:34:19 18° S 03:37:36 10° SSE visible
